Total_Precipitation_Accumulation
0.00 0.00 0.00 0.00 0.00 0.00 0.00 0.00 0.00 0.00 0.00 0.00 0.00 0.00 0.00 0.00 0.00 0.00 0.00 0.00 0.00 0.00
0.00 0.00 0.00 0.00 0.00 0.00 0.00 0.00 0.00 0.00 0.00 0.00 0.00 0.00 0.00 0.00 0.00 0.00 0.00 0.00 0.00 0.04
0.00 0.00 0.00 0.00 0.00 0.00 0.00 0.00 0.00 0.00 0.00 0.00 0.00 0.00 0.00 0.00 0.00 0.00 0.00 0.00 0.02 0.12
0.00 0.00 0.00 0.00 0.00 0.00 0.00 0.00 0.00 0.00 0.00 0.00 0.00 0.00 0.00 0.00 0.00 0.00 0.00 0.00 0.02 0.12
0.00 0.00 0.00 0.00 0.00 0.00 0.00 0.00 0.00 0.00 0.00 0.00 0.00 0.00 0.00 0.00 0.00 0.00 0.00 0.00 0.01 0.05
0.00 0.00 0.00 0.00 0.00 0.00 0.00 0.00 0.00 0.00 0.00 0.00 0.00 0.00 0.00 0.00 0.00 0.00 0.00 0.00 0.02 0.04
0.00 0.00 0.00 0.00 0.00 0.00 0.00 0.00 0.00 0.00 0.00 0.00 0.00 0.00 0.00 0.01 0.05 0.06 0.06 0.04 0.06 0.19
0.00 0.00 0.00 0.00 0.00 0.00 0.00 0.00 0.00 0.00 0.00 0.01 0.00 0.01 0.03 0.08 0.07 0.10 0.11 0.13 0.19 0.35
0.00 0.00 0.00 0.00 0.00 0.00 0.00 0.00 0.01 0.02 0.03 0.01 0.02 0.03 0.16 0.17 0.10 0.08 0.08 0.21 0.43 0.56
0.00 0.00 0.00 0.00 0.00 0.00 0.00 0.00 0.01 0.03 0.04 0.03 0.03 0.08 0.16 0.16 0.12 0.08 0.10 0.19 0.37 0.56
0.00 0.00 0.00 0.00 0.00 0.00 0.00 0.01 0.01 0.02 0.01 0.03 0.02 0.05 0.09 0.13 0.11 0.07 0.08 0.12 0.18 0.22
0.00 0.00 0.00 0.01 0.01 0.01 0.00 0.01 0.02 0.03 0.02 0.02 0.04 0.08 0.10 0.13 0.07 0.06 0.07 0.10 0.10 0.11
0.03 0.03 0.02 0.03 0.03 0.02 0.03 0.04 0.04 0.03 0.02 0.03 0.04 0.09 0.11 0.10 0.04 0.03 0.03 0.04 0.05 0.05
0.06 0.08 0.09 0.04 0.03 0.03 0.05 0.05 0.06 0.05 0.04 0.04 0.04 0.05 0.09 0.09 0.05 0.03 0.02 0.02 0.02 0.02